DB5ZQ Weather Reports


time (UTC)temp
C
wind
direction
speed
KPH
gust
KPH
rain 1hr
cm
rain 24hr
cm
rain mn
cm
humidity
%
barometer
mb
20260906075456 17 180 0.0 8.0 0.00 0.00 0.00 68 1024.1
20260906074956 17 213 0.0 3.2 0.00 0.00 0.00 68 1024.1
20260906074456 16 195 0.0 4.8 0.00 0.00 0.00 68 1024.2
20260906073955 16 180 0.0 3.2 0.00 0.00 0.00 68 1024.1
20260906073455 16 240 0.0 4.8 0.00 0.00 0.00 69 1024.1
20260906072955 16 227 1.6 4.8 0.00 0.00 0.00 69 1024.0
20260906072454 16 222 0.0 4.8 0.00 0.00 0.00 70 1024.1
20260906071954 16 208 0.0 0.0 0.00 0.00 0.00 71 1024.1
20260906071454 16 210 0.0 0.0 0.00 0.00 0.00 71 1024.0
20260906070954 16 210 0.0 1.6 0.00 0.00 0.00 71 1023.9
20260906070453 16 251 0.0 3.2 0.00 0.00 0.00 71 1024.0
20260906065953 16 185 0.0 0.0 0.00 0.00 0.00 71 1024.0
20260906065453 16 185 0.0 6.4 0.00 0.00 0.00 72 1023.9
20260906064953 16 236 0.0 0.0 0.00 0.00 0.00 72 1023.8
20260906064452 16 236 0.0 3.2 0.00 0.00 0.00 71 1023.9
20260906063952 15 191 0.0 0.0 0.00 0.00 0.00 71 1023.9
20260906063452 15 178 0.0 0.0 0.00 0.00 0.00 71 1024.0
20260906062951 15 178 0.0 4.8 0.00 0.00 0.00 71 1024.0
20260906062451 15 189 0.0 8.0 0.00 0.00 0.00 72 1024.1
20260906061951 15 253 0.0 3.2 0.00 0.00 0.00 71 1024.1
20260906061450 15 216 0.0 3.2 0.00 0.00 0.00 71 1024.1
20260906060950 15 223 0.0 0.0 0.00 0.00 0.00 71 1024.1
20260906060450 15 223 0.0 0.0 0.00 0.00 0.00 70 1024.1
20260906055950 15 226 0.0 0.0 0.00 0.00 0.00 70 1024.1
20260906055449 15 226 0.0 0.0 0.00 0.00 0.00 70 1024.0
20260906054949 15 226 0.0 0.0 0.00 0.00 0.00 71 1023.9
20260906054449 15 226 0.0 0.0 0.00 0.00 0.00 71 1023.9
20260906053949 15 226 0.0 0.0 0.00 0.00 0.00 71 1023.9
20260906053448 15 226 0.0 0.0 0.00 0.00 0.00 71 1023.9
20260906052948 15 226 0.0 0.0 0.00 0.00 0.00 71 1023.9
20260906052448 15 226 0.0 0.0 0.00 0.00 0.00 71 1023.7
20260906051947 15 226 0.0 0.0 0.00 0.00 0.00 70 1023.7
20260906051447 15 226 0.0 0.0 0.00 0.00 0.00 70 1023.5
20260906050947 15 226 0.0 0.0 0.00 0.00 0.00 70 1023.6
20260906050447 15 226 0.0 0.0 0.00 0.00 0.00 70 1023.6
20260906045946 15 226 0.0 1.6 0.00 0.00 0.00 70 1023.6
20260906045446 15 87 0.0 0.0 0.00 0.00 0.00 70 1023.5
20260906044946 15 87 0.0 0.0 0.00 0.00 0.00 70 1023.5
20260906044445 15 87 0.0 0.0 0.00 0.00 0.00 70 1023.5
20260906043945 15 87 0.0 0.0 0.00 0.00 0.00 70 1023.6
20260906043445 15 87 0.0 0.0 0.00 0.00 0.00 70 1023.5
20260906042944 15 87 0.0 0.0 0.00 0.00 0.00 69 1023.5
20260906042444 15 87 0.0 0.0 0.00 0.00 0.00 69 1023.5
20260906041944 15 87 0.0 0.0 0.00 0.00 0.00 69 1023.5
20260906041444 15 71 0.0 0.0 0.00 0.00 0.00 69 1023.5
20260906040943 15 71 0.0 0.0 0.00 0.00 0.00 69 1023.5
20260906040443 15 71 0.0 0.0 0.00 0.00 0.00 69 1023.5
20260906035943 15 71 0.0 0.0 0.00 0.00 0.00 69 1023.5
20260906035443 15 71 0.0 0.0 0.00 0.00 0.00 69 1023.6
20260906034942 15 71 0.0 0.0 0.00 0.00 0.00 69 1023.6
20260906034442 15 71 0.0 0.0 0.00 0.00 0.00 69 1023.5
20260906033942 15 71 0.0 0.0 0.00 0.00 0.00 69 1023.4
20260906033441 15 71 0.0 0.0 0.00 0.00 0.00 69 1023.4
20260906032941 15 71 0.0 0.0 0.00 0.00 0.00 68 1023.3
20260906032441 15 71 0.0 0.0 0.00 0.00 0.00 68 1023.3
20260906031941 15 71 0.0 0.0 0.00 0.00 0.00 68 1023.4
20260906031440 16 71 0.0 0.0 0.00 0.00 0.00 68 1023.5
20260906030940 16 71 0.0 0.0 0.00 0.00 0.00 69 1023.5
20260906030440 16 71 0.0 0.0 0.00 0.00 0.00 69 1023.6
20260906025939 16 71 0.0 0.0 0.00 0.00 0.00 69 1023.5
20260906025439 16 71 0.0 0.0 0.00 0.00 0.00 68 1023.5
20260906024939 16 71 0.0 0.0 0.00 0.00 0.00 68 1023.5
20260906024439 16 71 0.0 0.0 0.00 0.00 0.00 68 1023.4
20260906023938 16 71 0.0 0.0 0.00 0.00 0.00 68 1023.4
20260906023438 16 71 0.0 0.0 0.00 0.00 0.00 68 1023.5
20260906022938 16 71 0.0 0.0 0.00 0.00 0.00 68 1023.5
20260906022437 16 71 0.0 0.0 0.00 0.00 0.00 68 1023.5
20260906021937 16 71 0.0 0.0 0.00 0.00 0.00 68 1023.5
20260906021437 16 71 0.0 0.0 0.00 0.00 0.00 68 1023.6
20260906020937 16 71 0.0 0.0 0.00 0.00 0.00 68 1023.6
20260906020436 16 71 0.0 0.0 0.00 0.00 0.00 68 1023.5
20260906015936 16 71 0.0 0.0 0.00 0.00 0.00 67 1023.5
20260906015436 16 71 0.0 0.0 0.00 0.00 0.00 67 1023.5
20260906014935 16 71 0.0 0.0 0.00 0.00 0.00 67 1023.4
20260906014435 16 71 0.0 0.0 0.00 0.00 0.00 67 1023.4
20260906013935 16 71 0.0 0.0 0.00 0.00 0.00 67 1023.3
20260906013435 16 71 0.0 0.0 0.00 0.00 0.00 67 1023.2
20260906012934 17 71 0.0 0.0 0.00 0.00 0.00 67 1023.2
20260906012434 16 71 0.0 4.8 0.00 0.00 0.00 67 1023.2
20260906011934 16 81 0.0 0.0 0.00 0.00 0.00 67 1023.1
20260906011434 17 81 0.0 0.0 0.00 0.00 0.00 66 1023.1
20260906010933 17 81 0.0 0.0 0.00 0.00 0.00 66 1023.2
20260906010433 17 81 0.0 0.0 0.00 0.00 0.00 66 1023.1
20260906005933 17 81 0.0 0.0 0.00 0.00 0.00 66 1023.1
20260906005432 17 81 0.0 0.0 0.00 0.00 0.00 66 1023.1
20260906004932 17 81 0.0 0.0 0.00 0.00 0.00 65 1023.0
20260906004432 17 81 0.0 0.0 0.00 0.00 0.00 65 1023.0
20260906003932 17 81 0.0 0.0 0.00 0.00 0.00 65 1023.0
20260906003431 17 81 0.0 0.0 0.00 0.00 0.00 65 1023.1
20260906002931 17 81 0.0 0.0 0.00 0.00 0.00 65 1023.1
20260906002431 17 81 0.0 0.0 0.00 0.00 0.00 65 1023.1
20260906001930 17 81 0.0 0.0 0.00 0.00 0.00 64 1023.1
20260906001430 17 81 0.0 0.0 0.00 0.00 0.00 64 1023.0
20260906000930 17 81 0.0 0.0 0.00 0.00 0.00 64 1022.9
20260906000429 17 81 0.0 0.0 0.00 0.00 0.00 64 1022.9
20260905235929 17 81 0.0 0.0 0.00 0.00 0.00 64 1022.9
20260905235429 17 81 0.0 0.0 0.00 0.00 0.00 64 1023.0
20260905234929 17 81 0.0 3.2 0.00 0.00 0.00 64 1023.0
20260905234428 17 61 0.0 4.8 0.00 0.00 0.00 63 1023.0
20260905233928 18 43 0.0 1.6 0.00 0.00 0.00 63 1023.0
20260905233428 18 97 0.0 0.0 0.00 0.00 0.00 63 1023.0
20260905232928 18 97 0.0 0.0 0.00 0.00 0.00 62 1023.1
20260905232427 18 97 0.0 0.0 0.00 0.00 0.00 62 1023.1
20260905231927 18 97 0.0 0.0 0.00 0.00 0.00 62 1023.0
20260905231427 18 97 0.0 0.0 0.00 0.00 0.00 61 1023.0
20260905230926 18 97 0.0 0.0 0.00 0.00 0.00 61 1022.9
20260905230426 18 97 0.0 0.0 0.00 0.00 0.00 61 1022.9
20260905225926 18 97 0.0 0.0 0.00 0.00 0.00 60 1022.9
20260905225426 18 97 0.0 0.0 0.00 0.00 0.00 60 1022.9
20260905224925 19 97 0.0 0.0 0.00 0.00 0.00 60 1022.9
20260905224425 19 97 0.0 0.0 0.00 0.00 0.00 59 1022.8
20260905223925 19 97 0.0 0.0 0.00 0.00 0.00 59 1022.7
20260905223424 19 99 0.0 1.6 0.00 0.00 0.00 59 1022.6
20260905222924 19 67 0.0 0.0 0.00 0.00 0.00 59 1022.6
20260905222424 19 67 0.0 0.0 0.00 0.00 0.00 59 1022.5
20260905221924 19 67 0.0 0.0 0.00 0.00 0.00 59 1022.5
20260905221423 19 67 0.0 0.0 0.00 0.00 0.00 58 1022.5
20260905220923 19 67 0.0 0.0 0.00 0.00 0.00 58 1022.4
20260905220423 20 67 0.0 0.0 0.00 0.00 0.00 57 1022.4
20260905215922 20 67 0.0 0.0 0.00 0.00 0.00 57 1022.3
20260905215422 20 67 0.0 0.0 0.00 0.00 0.00 57 1022.3
20260905214922 20 67 0.0 0.0 0.00 0.00 0.00 57 1022.3
20260905214422 20 67 0.0 0.0 0.00 0.00 0.00 56 1022.2
20260905213921 20 67 0.0 0.0 0.00 0.00 0.00 56 1022.2
20260905213421 20 67 0.0 0.0 0.00 0.00 0.00 55 1022.0
20260905212921 20 67 0.0 0.0 0.00 0.00 0.00 55 1022.0
20260905212420 20 67 0.0 0.0 0.00 0.00 0.00 55 1022.0
20260905211920 20 67 0.0 0.0 0.00 0.00 0.00 55 1021.9
20260905211420 20 67 0.0 0.0 0.00 0.00 0.00 55 1021.9
20260905210920 20 67 0.0 0.0 0.00 0.00 0.00 54 1021.8
20260905210419 20 67 0.0 0.0 0.00 0.00 0.00 54 1021.7
20260905205919 20 67 0.0 0.0 0.00 0.00 0.00 54 1021.7
20260905205419 21 67 0.0 0.0 0.00 0.00 0.00 53 1021.7
20260905204918 20 67 0.0 0.0 0.00 0.03 0.00 53 1021.7
20260905204418 20 67 0.0 0.0 0.00 0.03 0.00 53 1021.8
20260905203918 20 67 0.0 0.0 0.00 0.03 0.00 52 1021.6
20260905203418 21 88 0.0 0.0 0.00 0.03 0.00 52 1021.6
20260905202917 21 88 0.0 0.0 0.00 0.03 0.00 52 1021.6
20260905202417 21 88 0.0 1.6 0.00 0.03 0.00 52 1021.6
20260905201917 21 54 0.0 0.0 0.00 0.03 0.00 51 1021.6
20260905201417 21 54 0.0 0.0 0.00 0.03 0.00 51 1021.5
20260905200916 21 54 0.0 0.0 0.00 0.03 0.00 51 1021.5
20260905200416 21 54 0.0 0.0 0.00 0.03 0.00 51 1021.5
20260905195916 21 54 0.0 0.0 0.00 0.03 0.00 51 1021.5
20260905195415 21 54 0.0 0.0 0.00 0.03 0.00 50 1021.4
20260905194915 21 54 0.0 0.0 0.00 0.03 0.00 50 1021.4
20260905194415 21 54 0.0 0.0 0.00 0.03 0.00 50 1021.3
20260905193915 22 54 0.0 0.0 0.00 0.03 0.00 49 1021.2
20260905193414 22 54 0.0 0.0 0.00 0.03 0.00 49 1021.2
20260905192914 22 54 0.0 0.0 0.00 0.03 0.00 48 1021.1
20260905192414 22 54 0.0 0.0 0.00 0.03 0.00 48 1021.1
20260905191913 22 54 0.0 0.0 0.00 0.03 0.00 47 1021.1
20260905191413 22 54 0.0 0.0 0.00 0.03 0.00 47 1021.0
20260905190913 22 54 0.0 0.0 0.00 0.03 0.00 46 1020.9
20260905190413 23 54 0.0 0.0 0.00 0.03 0.00 46 1020.9
20260905185912 23 54 0.0 0.0 0.00 0.03 0.00 45 1020.9
20260905185412 23 54 0.0 0.0 0.00 0.03 0.00 45 1020.9
20260905184912 23 54 0.0 0.0 0.00 0.03 0.00 45 1020.9
20260905184411 23 54 0.0 0.0 0.00 0.03 0.00 44 1020.8
20260905183911 23 54 0.0 0.0 0.00 0.03 0.00 44 1020.8
20260905183411 23 54 0.0 0.0 0.00 0.03 0.00 44 1020.8
20260905182911 23 54 0.0 4.8 0.00 0.03 0.00 43 1020.7
20260905182410 23 90 0.0 0.0 0.00 0.03 0.00 43 1020.6
20260905181910 23 90 0.0 0.0 0.00 0.03 0.00 43 1020.6
20260905181410 23 90 0.0 0.0 0.00 0.03 0.00 42 1020.5
20260905180909 23 90 0.0 3.2 0.00 0.03 0.00 42 1020.5
20260905180409 24 118 0.0 0.0 0.00 0.03 0.00 41 1020.3
20260905175909 24 118 0.0 1.6 0.00 0.03 0.00 41 1020.3
20260905175409 23 98 0.0 4.8 0.00 0.03 0.00 41 1020.2
20260905174908 24 227 0.0 6.4 0.00 0.03 0.00 41 1020.1
20260905174408 24 53 0.0 6.4 0.00 0.03 0.00 40 1020.1
20260905173908 25 37 4.8 9.7 0.00 0.03 0.00 40 1020.1
20260905173407 25 59 0.0 12.9 0.00 0.03 0.00 39 1020.1
20260905172907 25 90 0.0 4.8 0.00 0.03 0.00 39 1020.1
20260905172407 25 136 3.2 8.0 0.00 0.03 0.00 38 1020.0
20260905171907 25 8 0.0 9.7 0.00 0.03 0.00 37 1019.9
20260905171406 26 85 0.0 8.0 0.00 0.03 0.00 37 1019.9
20260905170906 26 102 1.6 6.4 0.00 0.03 0.00 36 1019.9
20260905170406 26 94 4.8 11.3 0.00 0.03 0.00 35 1019.8
20260905165905 26 119 3.2 14.5 0.00 0.03 0.00 35 1019.8
20260905165405 27 120 1.6 11.3 0.00 0.03 0.00 34 1019.8
20260905164905 27 108 0.0 9.7 0.00 0.03 0.00 34 1019.8
20260905164405 27 85 1.6 14.5 0.00 0.03 0.00 33 1019.8
20260905163904 27 67 0.0 14.5 0.00 0.03 0.00 33 1019.7
20260905163404 27 109 3.2 16.1 0.00 0.03 0.00 32 1019.7
20260905162904 28 126 6.4 11.3 0.00 0.03 0.00 32 1019.6
20260905162403 28 59 3.2 9.7 0.00 0.03 0.00 31 1019.5
20260905161903 28 98 0.0 11.3 0.00 0.03 0.00 31 1019.4
20260905161403 28 239 0.0 4.8 0.00 0.03 0.00 31 1019.3
20260905160903 28 322 1.6 17.7 0.00 0.03 0.00 30 1019.2
20260905160402 28 101 14.5 14.5 0.00 0.03 0.00 30 1019.0
20260905155902 28 142 0.0 16.1 0.00 0.03 0.00 30 1019.0
20260905155402 28 81 6.4 12.9 0.00 0.03 0.00 30 1019.0
20260905154901 29 81 8.0 9.7 0.00 0.03 0.00 30 1019.0
20260905154401 29 30 0.0 9.7 0.00 0.03 0.00 30 1019.0
20260905153901 28 97 8.0 12.9 0.00 0.03 0.00 29 1018.9
20260905153401 28 226 3.2 14.5 0.00 0.03 0.00 29 1019.0
20260905152900 28 49 3.2 11.3 0.00 0.03 0.00 29 1018.9
20260905152400 28 29 4.8 16.1 0.00 0.03 0.00 29 1018.9
20260905151900 29 77 1.6 14.5 0.00 0.03 0.00 29 1018.8
20260905151359 29 115 1.6 11.3 0.00 0.03 0.00 28 1018.7
20260905150859 29 84 8.0 12.9 0.00 0.03 0.00 29 1018.7
20260905150359 28 125 3.2 12.9 0.00 0.03 0.00 29 1018.6
20260905145859 28 11 0.0 12.9 0.00 0.03 0.00 29 1018.6
20260905145358 29 28 0.0 12.9 0.00 0.03 0.00 29 1018.6
20260905144858 28 19 4.8 12.9 0.00 0.03 0.00 29 1018.6
20260905144358 28 251 1.6 16.1 0.00 0.03 0.00 30 1018.7
20260905143857 28 358 3.2 24.1 0.00 0.03 0.00 29 1018.6
20260905143357 28 84 8.0 16.1 0.00 0.03 0.00 29 1018.6
20260905142857 28 75 0.0 16.1 0.00 0.03 0.00 30 1018.6
20260905142357 27 123 0.0 16.1 0.00 0.03 0.00 31 1018.6
20260905141856 27 80 12.9 17.7 0.00 0.03 0.00 31 1018.6
20260905141356 27 82 3.2 11.3 0.00 0.03 0.00 31 1018.5
20260905140856 27 136 1.6 19.3 0.00 0.03 0.00 32 1018.5
20260905140355 27 108 4.8 19.3 0.00 0.03 0.00 32 1018.6
20260905135855 27 82 8.0 16.1 0.00 0.03 0.00 32 1018.5
20260905135355 27 132 8.0 17.7 0.00 0.03 0.00 32 1018.5
20260905134855 27 52 3.2 16.1 0.00 0.03 0.00 33 1018.5
20260905134354 27 46 4.8 14.5 0.00 0.03 0.00 33 1018.5
20260905133854 27 226 1.6 11.3 0.00 0.03 0.00 33 1018.5
20260905133354 28 111 3.2 19.3 0.00 0.03 0.00 32 1018.6
20260905132853 27 95 8.0 14.5 0.00 0.03 0.00 32 1018.5
20260905132353 28 68 9.7 17.7 0.00 0.03 0.00 32 1018.6
20260905131853 28 92 6.4 17.7 0.00 0.03 0.00 32 1018.5
20260905131353 28 126 8.0 12.9 0.00 0.03 0.00 31 1018.5
20260905130852 28 129 9.7 19.3 0.00 0.03 0.00 31 1018.5
20260905130352 28 64 6.4 14.5 0.00 0.03 0.00 32 1018.4
20260905125852 28 115 4.8 14.5 0.00 0.03 0.00 32 1018.4
20260905125351 28 80 3.2 14.5 0.00 0.03 0.00 32 1018.4
20260905124851 28 142 8.0 16.1 0.00 0.03 0.00 33 1018.4
20260905124351 27 21 6.4 20.9 0.00 0.03 0.00 34 1018.4
20260905123851 27 43 3.2 14.5 0.00 0.03 0.00 33 1018.4
20260905123350 27 94 8.0 14.5 0.00 0.03 0.00 32 1018.4
20260905122850 28 54 6.4 14.5 0.00 0.03 0.00 31 1018.4
20260905122350 28 106 4.8 11.3 0.00 0.03 0.00 32 1018.3
20260905121849 28 90 1.6 14.5 0.00 0.03 0.00 31 1018.4
20260905121349 27 73 0.0 12.9 0.00 0.03 0.00 33 1018.3
20260905120849 26 158 1.6 14.5 0.00 0.03 0.00 35 1018.3
20260905120349 26 106 11.3 14.5 0.00 0.03 0.00 36 1018.3
20260905115848 26 80 9.7 14.5 0.00 0.03 0.00 37 1018.3
20260905115348 25 56 1.6 11.3 0.00 0.03 0.00 38 1018.3
20260905114848 25 50 3.2 11.3 0.00 0.03 0.00 39 1018.2
20260905114348 25 52 3.2 22.5 0.00 0.03 0.00 39 1018.3
20260905113848 25 355 3.2 14.5 0.00 0.03 0.00 39 1018.2
20260905113347 25 81 8.0 12.9 0.00 0.03 0.00 40 1018.3
20260905112847 25 296 1.6 9.7 0.00 0.03 0.00 43 1018.2
20260905112346 24 101 3.2 11.3 0.00 0.03 0.00 43 1018.3
20260905111846 24 104 6.4 8.0 0.00 0.03 0.00 43 1018.3
20260905111346 24 33 1.6 9.7 0.00 0.03 0.00 42 1018.2
20260905110846 24 292 1.6 8.0 0.00 0.03 0.00 44 1018.3
20260905110345 23 75 3.2 16.1 0.00 0.03 0.00 44 1018.3
20260905105845 23 112 3.2 16.1 0.00 0.03 0.00 45 1018.3
20260905105345 23 109 3.2 12.9 0.00 0.03 0.00 45 1018.4
20260905104844 23 67 1.6 8.0 0.00 0.03 0.00 44 1018.3
20260905104344 24 112 3.2 14.5 0.00 0.03 0.00 43 1018.4
20260905103844 24 46 4.8 16.1 0.00 0.03 0.00 43 1018.3
20260905103344 23 247 1.6 12.9 0.00 0.03 0.00 45 1018.3
20260905102843 22 45 1.6 14.5 0.00 0.03 0.00 45 1018.4
20260905102343 22 358 3.2 14.5 0.00 0.03 0.00 47 1018.4
20260905101843 22 56 8.0 16.1 0.00 0.03 0.00 46 1018.4
20260905101342 22 109 4.8 16.1 0.00 0.03 0.00 47 1018.5
20260905100842 22 74 11.3 19.3 0.00 0.03 0.00 48 1018.5
20260905100342 22 105 9.7 12.9 0.00 0.03 0.00 50 1018.5
20260905095842 22 39 4.8 19.3 0.00 0.03 0.00 50 1018.3
20260905095341 22 30 6.4 12.9 0.00 0.03 0.00 51 1018.4
20260905094841 21 52 1.6 12.9 0.00 0.03 0.00 51 1018.3
20260905094341 21 99 9.7 16.1 0.00 0.03 0.00 50 1018.3
20260905093840 21 334 4.8 12.9 0.00 0.03 0.00 51 1018.4
20260905093340 21 327 0.0 19.3 0.00 0.03 0.00 51 1018.4
20260905092840 21 67 4.8 20.9 0.00 0.03 0.00 51 1018.5
20260905092340 21 81 9.7 12.9 0.00 0.03 0.00 51 1018.4
20260905091839 21 84 3.2 14.5 0.00 0.03 0.00 51 1018.3
20260905091339 21 56 6.4 14.5 0.00 0.03 0.00 52 1018.3
20260905090839 21 73 6.4 19.3 0.00 0.03 0.00 52 1018.2
20260905090338 21 49 4.8 11.3 0.00 0.03 0.00 55 1018.2
20260905085838 21 59 6.4 9.7 0.00 0.03 0.00 55 1018.1
20260905085338 21 104 0.0 11.3 0.00 0.03 0.00 57 1018.1
20260905084838 21 302 3.2 11.3 0.00 0.03 0.00 57 1018.1
20260905084337 20 50 3.2 14.5 0.00 0.03 0.00 59 1018.0
20260905083837 20 32 0.0 14.5 0.00 0.03 0.00 60 1018.0
20260905083337 20 101 6.4 11.3 0.00 0.03 0.00 60 1018.0
20260905082837 20 59 3.2 12.9 0.00 0.03 0.00 60 1017.9
20260905082336 20 53 1.6 11.3 0.00 0.03 0.00 61 1017.8
20260905081836 20 92 3.2 12.9 0.00 0.03 0.00 61 1017.7
20260905081336 20 85 6.4 12.9 0.00 0.03 0.00 64 1017.7
20260905080835 20 125 8.0 14.5 0.00 0.03 0.00 64 1017.8
20260905080335 20 52 0.0 12.9 0.00 0.03 0.00 66 1017.6